• In Deutschland
  • Länderverzeichnis
  • Für 7 Tage
  • Wassertemperatur
  • Satellitenkarten
  • Wetterkarte
  • Widgets
  • user-avatar
    Anmelden

    Stündliche Wetter Tunja

    Heute, 25 September, Montag

    Zeit Temperatur Niederschläge Wind Luftdruck Luftfeuchtigkeit
    00:00 +11°C° 0,4 mm 1 m/S 550 mmHg 94%
    01:00 +10°C° 0 mm 2 m/S 550 mmHg 94%
    02:00 +11°C° 0,2 mm 1 m/S 549 mmHg 94%
    03:00 +11°C° 0,2 mm 1 m/S 549 mmHg 94%
    04:00 +11°C° 0,2 mm 1 m/S 549 mmHg 94%
    05:00 +11°C° 0 mm 1 m/S 549 mmHg 92%
    06:00 +11°C° 0 mm 1 m/S 550 mmHg 91%
    07:00 +12°C° 0 mm 1 m/S 550 mmHg 89%
    08:00 +14°C° 0,1 mm 2 m/S 551 mmHg 82%
    09:00 +15°C° 0,1 mm 2 m/S 552 mmHg 74%
    10:00 +17°C° 0,1 mm 2 m/S 553 mmHg 67%
    11:00 +17°C° 0,2 mm 2 m/S 552 mmHg 67%
    12:00 +18°C° 0,2 mm 2 m/S 552 mmHg 66%
    13:00 +18°C° 0,2 mm 2 m/S 552 mmHg 65%
    14:00 +17°C° 0,4 mm 2 m/S 551 mmHg 69%
    15:00 +17°C° 0,4 mm 2 m/S 550 mmHg 72%
    16:00 +16°C° 0,4 mm 2 m/S 549 mmHg 75%
    17:00 +15°C° 0,5 mm 2 m/S 549 mmHg 81%
    18:00 +13°C° 0,5 mm 1 m/S 548 mmHg 87%
    19:00 +12°C° 0,5 mm 1 m/S 548 mmHg 94%
    20:00 +11°C° 0,2 mm 1 m/S 548 mmHg 93%
    21:00 +11°C° 0,2 mm 1 m/S 548 mmHg 93%
    22:00 +11°C° 0,2 mm 1 m/S 549 mmHg 93%
    23:00 +11°C° 0,2 mm 1 m/S 549 mmHg 93%

    Morgen, 26 September, Dienstag

    Zeit Temperatur Niederschläge Wind Luftdruck Luftfeuchtigkeit
    00:00 +10°C° 0,2 mm 1 m/S 548 mmHg 92%
    01:00 +10°C° 0,2 mm 1 m/S 548 mmHg 92%
    02:00 +10°C° 0,5 mm 1 m/S 548 mmHg 92%
    03:00 +10°C° 0,5 mm 1 m/S 548 mmHg 92%
    04:00 +10°C° 0,5 mm 1 m/S 548 mmHg 91%
    05:00 +11°C° 0,5 mm 1 m/S 549 mmHg 90%
    06:00 +11°C° 0,5 mm 1 m/S 549 mmHg 89%
    07:00 +12°C° 0,5 mm 1 m/S 550 mmHg 87%
    08:00 +13°C° 0,6 mm 1 m/S 551 mmHg 82%
    09:00 +14°C° 0,6 mm 1 m/S 552 mmHg 76%
    10:00 +16°C° 0,6 mm 1 m/S 553 mmHg 71%
    11:00 +16°C° 0,4 mm 2 m/S 552 mmHg 70%
    12:00 +17°C° 0,4 mm 2 m/S 552 mmHg 68%
    13:00 +17°C° 0,4 mm 2 m/S 551 mmHg 67%
    14:00 +16°C° 0,4 mm 2 m/S 551 mmHg 70%
    15:00 +16°C° 0,4 mm 2 m/S 550 mmHg 74%
    16:00 +15°C° 0,4 mm 2 m/S 549 mmHg 77%
    17:00 +14°C° 0,3 mm 1 m/S 549 mmHg 83%
    18:00 +13°C° 0,3 mm 1 m/S 549 mmHg 88%
    19:00 +11°C° 0,3 mm 1 m/S 548 mmHg 94%
    20:00 +11°C° 0,1 mm 1 m/S 548 mmHg 94%
    21:00 +10°C° 0,1 mm 1 m/S 549 mmHg 94%
    22:00 +10°C° 0,1 mm 1 m/S 549 mmHg 94%
    23:00 +10°C° 0 mm 1 m/S 548 mmHg 93%

    übermorgen, 27 September, Mittwoch

    Zeit Temperatur Niederschläge Wind Luftdruck Luftfeuchtigkeit
    00:00 +9°C° 0 mm 1 m/S 548 mmHg 92%
    01:00 +9°C° 0 mm 1 m/S 547 mmHg 91%
    02:00 +9°C° 0 mm 1 m/S 547 mmHg 90%
    03:00 +9°C° 0 mm 1 m/S 547 mmHg 89%
    04:00 +9°C° 0 mm 1 m/S 547 mmHg 88%
    05:00 +10°C° 0 mm 1 m/S 548 mmHg 85%
    06:00 +11°C° 0 mm 1 m/S 548 mmHg 82%
    07:00 +11°C° 0 mm 1 m/S 549 mmHg 79%
    08:00 +14°C° 0 mm 1 m/S 551 mmHg 71%
    09:00 +16°C° 0 mm 2 m/S 552 mmHg 63%
    10:00 +18°C° 0 mm 2 m/S 553 mmHg 55%
    11:00 +19°C° 0,1 mm 2 m/S 553 mmHg 55%
    12:00 +19°C° 0,1 mm 2 m/S 552 mmHg 55%
    13:00 +19°C° 0,1 mm 2 m/S 552 mmHg 55%
    14:00 +18°C° 0,4 mm 2 m/S 551 mmHg 60%
    15:00 +18°C° 0,4 mm 2 m/S 550 mmHg 65%
    16:00 +17°C° 0,4 mm 2 m/S 549 mmHg 70%
    17:00 +15°C° 0,4 mm 1 m/S 549 mmHg 78%
    18:00 +13°C° 0,4 mm 1 m/S 549 mmHg 86%
    19:00 +12°C° 0,4 mm 1 m/S 548 mmHg 94%
    20:00 +12°C° 0,1 mm 1 m/S 549 mmHg 94%
    21:00 +11°C° 0,1 mm 1 m/S 549 mmHg 94%
    22:00 +11°C° 0,1 mm 1 m/S 549 mmHg 94%
    23:00 +11°C° 0 mm 1 m/S 549 mmHg 93%

    28 September, Donnerstag

    Zeit Temperatur Niederschläge Wind Luftdruck Luftfeuchtigkeit
    00:00 +11°C° 0 mm 1 m/S 548 mmHg 92%
    01:00 +10°C° 0 mm 1 m/S 548 mmHg 92%
    02:00 +10°C° 0 mm 1 m/S 548 mmHg 90%
    03:00 +10°C° 0 mm 1 m/S 547 mmHg 89%
    04:00 +9°C° 0 mm 1 m/S 547 mmHg 88%
    05:00 +10°C° 0 mm 1 m/S 548 mmHg 85%
    06:00 +11°C° 0 mm 1 m/S 549 mmHg 83%
    07:00 +12°C° 0 mm 1 m/S 550 mmHg 80%
    08:00 +13°C° 0 mm 1 m/S 551 mmHg 73%
    09:00 +15°C° 0 mm 1 m/S 552 mmHg 66%
    10:00 +17°C° 0 mm 2 m/S 553 mmHg 60%
    11:00 +17°C° 0,3 mm 2 m/S 552 mmHg 61%
    12:00 +17°C° 0,3 mm 2 m/S 552 mmHg 63%
    13:00 +18°C° 0,3 mm 2 m/S 551 mmHg 64%
    14:00 +17°C° 0,5 mm 2 m/S 550 mmHg 68%
    15:00 +16°C° 0,5 mm 1 m/S 549 mmHg 73%
    16:00 +16°C° 0,5 mm 1 m/S 549 mmHg 77%
    17:00 +15°C° 0,5 mm 1 m/S 549 mmHg 83%
    18:00 +13°C° 0,5 mm 1 m/S 549 mmHg 89%
    19:00 +12°C° 0,5 mm 1 m/S 548 mmHg 95%
    20:00 +12°C° 0,5 mm 1 m/S 549 mmHg 95%
    21:00 +12°C° 0,5 mm 1 m/S 549 mmHg 95%
    22:00 +12°C° 0,5 mm 1 m/S 549 mmHg 96%
    23:00 +11°C° 0,2 mm 1 m/S 549 mmHg 95%

    29 September, Freitag

    Zeit Temperatur Niederschläge Wind Luftdruck Luftfeuchtigkeit
    00:00 +11°C° 0,2 mm 1 m/S 548 mmHg 95%
    01:00 +11°C° 0,2 mm 1 m/S 548 mmHg 95%
    02:00 +11°C° 0,1 mm 1 m/S 548 mmHg 94%
    03:00 +10°C° 0,1 mm 1 m/S 548 mmHg 93%
    04:00 +10°C° 0,1 mm 1 m/S 548 mmHg 93%
    05:00 +11°C° 0,1 mm 1 m/S 549 mmHg 91%
    06:00 +11°C° 0,1 mm 1 m/S 549 mmHg 89%
    07:00 +12°C° 0,1 mm 1 m/S 550 mmHg 87%
    08:00 +14°C° 0,1 mm 1 m/S 551 mmHg 79%
    09:00 +16°C° 0,1 mm 2 m/S 552 mmHg 71%
    10:00 +18°C° 0,1 mm 2 m/S 553 mmHg 63%
    11:00 +18°C° 0,4 mm 2 m/S 552 mmHg 65%
    12:00 +18°C° 0,4 mm 2 m/S 552 mmHg 67%
    13:00 +18°C° 0,4 mm 2 m/S 551 mmHg 69%
    14:00 +17°C° 0,8 mm 2 m/S 550 mmHg 72%
    15:00 +16°C° 0,8 mm 2 m/S 549 mmHg 76%
    16:00 +16°C° 0,8 mm 2 m/S 549 mmHg 80%
    17:00 +15°C° 0,7 mm 1 m/S 549 mmHg 85%
    18:00 +13°C° 0,7 mm 1 m/S 549 mmHg 90%
    19:00 +12°C° 0,7 mm 1 m/S 548 mmHg 95%
    20:00 +12°C° 0,4 mm 1 m/S 549 mmHg 96%
    21:00 +11°C° 0,4 mm 1 m/S 549 mmHg 96%
    22:00 +11°C° 0,4 mm 1 m/S 549 mmHg 96%
    23:00 +11°C° 0,3 mm 1 m/S 549 mmHg 95%

    30 September, Samstag

    Zeit Temperatur Niederschläge Wind Luftdruck Luftfeuchtigkeit
    00:00 +11°C° 0,3 mm 1 m/S 548 mmHg 94%
    01:00 +10°C° 0,3 mm 1 m/S 548 mmHg 93%
    02:00 +10°C° 0,4 mm 1 m/S 548 mmHg 92%
    03:00 +10°C° 0,4 mm 1 m/S 548 mmHg 91%
    04:00 +10°C° 0,4 mm 1 m/S 548 mmHg 90%
    05:00 +11°C° 0,3 mm 1 m/S 548 mmHg 89%
    06:00 +11°C° 0,3 mm 1 m/S 549 mmHg 87%
    07:00 +12°C° 0,3 mm 1 m/S 550 mmHg 86%
    08:00 +13°C° 0,3 mm 1 m/S 550 mmHg 80%
    09:00 +15°C° 0,3 mm 1 m/S 551 mmHg 74%
    10:00 +17°C° 0,3 mm 2 m/S 552 mmHg 68%
    11:00 +17°C° 0,5 mm 2 m/S 551 mmHg 70%
    12:00 +17°C° 0,5 mm 2 m/S 551 mmHg 71%
    13:00 +17°C° 0,5 mm 2 m/S 550 mmHg 72%
    14:00 +16°C° 1 mm 2 m/S 550 mmHg 77%
    15:00 +16°C° 1 mm 2 m/S 549 mmHg 81%
    16:00 +15°C° 1 mm 2 m/S 548 mmHg 85%
    17:00 +14°C° 1,3 mm 1 m/S 548 mmHg 89%
    18:00 +13°C° 1,3 mm 1 m/S 548 mmHg 92%
    19:00 +12°C° 1,3 mm 1 m/S 548 mmHg 96%
    20:00 +12°C° 1,5 mm 1 m/S 549 mmHg 96%
    21:00 +11°C° 1,5 mm 0 m/S 549 mmHg 96%
    22:00 +11°C° 1,5 mm 0 m/S 549 mmHg 96%
    23:00 +10°C° 1,3 mm 0 m/S 548 mmHg 96%
    Mehr zeigen